Location: Carabito
(9.8355°N, 67.9249°W)
Time: 22:08:39
(UTC+00:00)

Meteor 2-21 Rocket - Pass Details

Date: 23 May 2024
Orbit: 934 x 968 km, 82.5° (Epoch: 23 June)

Event Time Altitude Azimuth Distance (km) Brightness Sun altitude
Exits shadow 00:11:24 - 179° (S) 3,243 7.0 -19.9°
Reaches altitude 10° 00:12:51 10° 178° (S) 2,703 6.5 -20.2°
Maximum altitude 00:19:01 74° 93° (E) 1,003 4.3 -21.6°
Drops below altitude 10° 00:25:12 10° 9° (N) 2,697 7.0 -22.9°
Sets 00:27:41 0° 8° (N) 3,640 7.8 -23.5°
